Regional Weather Roundup
Issued by NWS

Home | Current Version | Previous Version | Text Only | Print | Product List | Glossary Off
Versions: 1 2 3 4 5 6 7 8 9 10 11 12 13 14 15 16 17 18 19 20 21 22 23 24 25 26 27 28 29 30 31 32 33 34 35 36 37 38 39 40 41 42 43 44 45 46 47 48 49 50

000
ASUS43 KMKX 101910
RWRWI

WISCONSIN REGIONAL WEATHER ROUNDUP
NATIONAL WEATHER SERVICE MILWAUKEE/SULLIVAN WI
100 PM CST WED FEB 10 2016

NOTE: "FAIR" INDICATES FEW OR NO CLOUDS BELOW 12,000 FEET WITH NO
SIGNIFICANT WEATHER AND/OR OBSTRUCTIONS TO VISIBILITY.

WIZ001-002-006>008-014>016-023>028-102000-
NORTHWEST WISCONSIN

CITY           SKY/WX    TMP DP  RH WIND       PRES   REMARKS
SUPERIOR ARPT  SUNNY      8  -2  64 CALM      30.15S
ASHLAND        CLOUDY     9  -2  61 N8        30.11F WCI  -3
HAYWARD        MOSUNNY    8  -4  58 NE8       30.06F WCI  -4
SIREN          SUNNY      6  -5  59 N5        30.11F WCI  -3
CUMBERLAND     SUNNY      5  -6  61 NE5       30.07F WCI  -4
RICE LAKE      SUNNY      7  -3  63 W7        30.10S WCI  -5
CHETEK         MOSUNNY    7  -3  62 NW3       30.08S
LADYSMITH      PTSUNNY   10  -4  54 NW9       30.06S WCI  -4
EAU CLAIRE     SUNNY      7  -4  60 N7        30.09S WCI  -5
MENOMONIE      SUNNY     15  -4  43 N5        30.10F WCI   8
NEW RICHMOND   MOSUNNY    6  -5  58 NE5       30.11S WCI  -3
OSCEOLA        SUNNY      7  -4  59 CALM      30.15S
$$

WIZ003>005-009-010-017-018-102000-
NORTH CENTRAL WISCONSIN

CITY           SKY/WX    TMP DP  RH WIND       PRES   REMARKS
MANITOWISH WTR CLOUDY     8  -4  58 NW12G17   29.98S WCI  -8
ARBOR VITAE    PTSUNNY   10  -2  59 N14       29.97F WCI  -6
WOODRUFF       PTSUNNY   10  -2  59 N14       29.97F WCI  -6
RHINELANDER    MIX PCPN   8  -6  52 N8G17     29.96F WCI  -4
EAGLE RIVER    LGT SNOW   7  -5  58 NW9       29.95F WCI  -7
LAND O LAKES   CLOUDY     8  -3  61 NW13G18   29.97S HAZE    WCI  -8
PHILLIPS       CLOUDY     7  -4  61 N6        30.00S WCI  -3
TOMAHAWK       PTSUNNY    9  -4  56 N8        29.99F WCI  -3
MEDFORD        PTSUNNY    9  -3  58 N8        29.98F WCI  -4
MERRILL        MOSUNNY   11  -5  50 NW9G16    29.99F WCI  -2
$$

WIZ029-030-035-036-043>047-102000-
CENTRAL WISCONSIN

CITY           SKY/WX    TMP DP  RH WIND       PRES   REMARKS
WAUSAU         PTSUNNY   11  -3  53 NW12G17   29.99S WCI  -3
MOSINEE        PTSUNNY   10  -2  56 N6        30.01S WCI   1
MARSHFIELD     PTSUNNY    9  -4  55 NW8       30.00F WCI  -3
STEVENS POINT  PTSUNNY    9  -3  57 NW6G17    30.01S WCI  -1
WAUPACA        MOSUNNY   16  -4  39 NW9       30.02S WCI   5
WAUTOMA        PTSUNNY   11  -2  56 N9        30.03F WCI  -2
WISC RAPIDS    MOSUNNY   10  -4  53 N13       30.04S WCI  -5
CAMP DOUGLAS   NOT AVBL
$$

WIZ011>013-019>022-031-037>040-048>050-102000-
NORTHEAST WISCONSIN

CITY           SKY/WX    TMP DP  RH WIND       PRES   REMARKS
ANTIGO         SUNNY      8  -5  55 N12       29.95F WCI  -7
SHAWANO        SUNNY     15  -4  41 N9        30.01F WCI   4
OCONTO         SUNNY     13  -5  45 NW8       30.01S WCI   2
STURGEON BAY   SUNNY     12  -6  44 NW15G21   29.99S WCI  -4
GREEN BAY      SUNNY     11  -4  51 NW14G22   30.01S WCI  -5
MANITOWOC      SUNNY     13  -1  54 NW14      30.01R WCI  -2
APPLETON       MOSUNNY   12  -6  44 NW17      29.99F WCI  -5
CLINTONVILLE   SUNNY     14  -6  41 N8        30.01S WCI   3
OSHKOSH        PTSUNNY   12  -3  51 NW9       30.01S WCI   0
$$

WIZ032>034-041-042-053>061-102000-
SOUTHWEST WISCONSIN

CITY           SKY/WX    TMP DP  RH WIND       PRES   REMARKS
LA CROSSE      SUNNY      9  -3  58 W9        30.09F WCI  -4
SPARTA         SUNNY     12  -1  55 N9        30.07F WCI   0
VIROQUA        SUNNY     10  -3  55 N7        30.02F WCI  -1
BOSCOBEL       CLOUDY    14  -3  47 N3        30.07F
PRAIRIE DU CHI CLOUDY    13  -3  47 W5        30.08F WCI   5
PLATTEVILLE    CLOUDY    12   0  58 N8        30.03F WCI   0
$$

WIZ056-057-062-063-064-067-068-102000-
SOUTH CENTRAL WISCONSIN

CITY           SKY/WX    TMP DP  RH WIND       PRES   REMARKS
REEDSBURG      SUNNY     11  -2  56 NW10G16   30.03F WCI  -3
BARABOO/DELLS  SUNNY     12  -3  50 N7        30.02F WCI   2
LONE ROCK      NOT AVBL
MINERAL POINT  MOSUNNY   14  -2  48 NW10      30.01F WCI   1
MADISON        MOSUNNY   12  -2  53 N12       30.02F WCI  -2
MIDDLETON      SUNNY     14   0  55 NW7       30.02F WCI   3
WATERTOWN      CLOUDY    12   2  62 NW10      30.01F WCI  -1
MONROE         SUNNY     14   1  57 NW8       30.00F WCI   3
JANESVILLE     PTSUNNY   16   3  57 NW12G17   30.02F WCI   3
$$

WIZ051-052-058>065-066-070>072-102000-
SOUTHEAST WISCONSIN

CITY           SKY/WX    TMP DP  RH WIND       PRES   REMARKS
MILWAUKEE      MOSUNNY   15  -2  46 NW12      30.00F WCI   2
WAUKESHA       CLOUDY    10   0  61 NW12G18   30.00F WCI  -4
MILWAUKEE/TIMM PTSUNNY   14  -2  48 NW14G20   30.01F WCI  -1
RACINE         CLOUDY    15  -1  49 W13       30.01F WCI   1
BURLINGTON     PTSUNNY   13   0  55 NW13      29.99F WCI  -1
KENOSHA        PTSUNNY   14   1  56 NW9       30.00F WCI   2
FOND DU LAC    PTSUNNY   12  -2  53 N13       30.01S WCI  -3
SHEBOYGAN      SUNNY     12  -3  51 NW13      30.00R WCI  -3
WEST BEND      PTSUNNY   12  -4  48 N13       29.99F WCI  -3
JUNEAU         CLOUDY    11   0  60 NW12      30.01F WCI  -3
$$

LSZ147-162-102000-
LAKE SUPERIOR

STATION/POSITION TIME  TEMP    WIND        PRES    WAVE
                       AIR SEA DIR/SP/G            HT/PER
                 (UTC) (F)     (DEG/KT/KT) (MB)    (FT/S)
DEVILS ISLAND    1800    8     330/ 10/ 13 1021.9F
SAXON HARBOR     1800   10                 1019.3
$$

LMZ867-665-643>646-102000-
LAKE MICHIGAN

STATION/POSITION TIME  TEMP    WIND        PRES    WAVE
                       AIR SEA DIR/SP/G            HT/PER
                 (UTC) (F)     (DEG/KT/KT) (MB)    (FT/S)
CHAMBERS ISLAND  1800   15     310/ 15/ 19 1015.2S
ALGOMA LAKESHORE 1841          320/ 15/ 20   N/A
KEWAUNEE LAKESHO 1800   11     310/ 13/ 18 1014.9F
SHEBOYGAN LAKESH 1900   11     310/ 15/ 18 1017.6R
PORT WASHINGTON  1800   13     320/  8/ 15 1017.3
MILWAUKEE LAKESH 1810   13     340/  8/  9   N/A
KENOSHA   LAKESH 1900   13     290/ 11/ 15 1015.9F
$$

TC  - TEMPERATURE IN CELSIUS
VSB - VISIBILITY IN STATUTE MILES
WCI - WIND CHILL INDEX
HX  - HEAT INDEX




USA.gov is the U.S. government's official web portal to all federal, state and local government web resources and services.